Regional Weather Roundup
Issued by NWS Little Rock, AR

Home | Current Version | Previous Version | Graphics & Text | Print | Product List | Glossary On
Versions: 1 2 3 4 5 6 7 8 9 10 11 12 13 14 15 16 17 18 19 20 21 22 23 24 25 26 27 28 29 30 31 32
000
ASUS44 KLZK 161105
RWRLZK

WEATHER ROUNDUP FOR ARKANSAS
NATIONAL WEATHER SERVICE LITTLE ROCK AR
600 AM CDT WED AUG 16 2017

NOTE: "FAIR" INDICATES FEW OR NO CLOUDS BELOW 12,000 FEET WITH NO
SIGNIFICANT WEATHER AND/OR OBSTRUCTIONS TO VISIBILITY.

ARZ001-003-010-029-161200-
NORTHWEST ARKANSAS

CITY           SKY/WX    TMP DP  RH WIND       PRES   REMARKS
FAYETTEVILLE   CLOUDY    70  70 100 CALM      29.91S
FORT SMITH     CLOUDY    75  73  93 NE6       29.88S
HARRISON       CLOUDY    72  72 100 SE8       29.94S
BENTONVILLE    CLOUDY    72  68  88 S7        29.91S
ROGERS         CLOUDY    72  70  93 SE7       29.92S
SILOAM SPGS    CLOUDY    72  68  88 SE7       29.90R
HIGHFILL       PTCLDY    72  71  97 S5        29.91R
SPRINGDALE     MOCLDY    72  72 100 SE5       29.93
$$

ARZ004-005-016-161200-
NORTH CENTRAL ARKANSAS

CITY           SKY/WX    TMP DP  RH WIND       PRES   REMARKS
BATESVILLE     CLOUDY    75  73  94 SE3       29.94S
FLIPPIN        CLOUDY    73  70  88 SE3       29.91R
MTN HOME       PTCLDY    73  73 100 S3        29.93R
$$

ARZ040-041-161200-
WEST CENTRAL ARKANSAS

CITY           SKY/WX    TMP DP  RH WIND       PRES   REMARKS
MENA           CLOUDY    81  79  94 SW3       29.96R HX  89
MOUNT IDA      MOCLDY    79  74  84 VRB3      29.92R
$$

ARZ009-017-025-026-028-161200-
NORTHEAST ARKANSAS

CITY           SKY/WX    TMP DP  RH WIND       PRES   REMARKS
JONESBORO      MOCLDY    73  73 100 S3        29.95R
NEWPORT        MOCLDY    73  73 100 SE8       29.95R
WALNUT RIDGE   CLOUDY    73  72  94 S7        29.94R
BLYTHEVILLE    MOCLDY    76  75  97 S5        29.96R
$$

ARZ022-023-033-042-044-161200-
CENTRAL ARKANSAS

CITY           SKY/WX    TMP DP  RH WIND       PRES   REMARKS
LITTLE ROCK    CLOUDY    76  76 100 SW9       29.95R
JACKSONVILLE   CLOUDY    77  77 100 S3        29.94R
CONWAY           N/A     77  75  94 S7        29.91R
SEARCY           N/A    N/A N/A N/A MISG        N/A
HOT SPRINGS    CLOUDY    78  77  96 S3        29.95R
RUSSELLVILLE   CLOUDY    76  75  97 SE3       29.91R
CLINTON        FAIR      72  72 100 CALM      29.94R FOG
$$

ARZ036-161200-
EAST ARKANSAS

CITY           SKY/WX    TMP DP  RH WIND       PRES   REMARKS
WEST MEMPHIS   PTCLDY    74  74 100 S7        29.96R
$$

ARZ050-053-066-070-073-161200-
SOUTHWEST ARKANSAS

CITY           SKY/WX    TMP DP  RH WIND       PRES   REMARKS
ARKADELPHIA    CLOUDY    75  75 100 CALM      29.95R
CAMDEN         CLOUDY    77  75  94 S5        29.95R
TEXARKANA      CLEAR     76  76 100 S9        29.94R
EL DORADO      CLOUDY    77  76  96 S6        29.97R
DE QUEEN       PTCLDY    74  74 100 CALM      29.91R FOG
$$

ARZ056-057-069-161200-
SOUTHEAST ARKANSAS

CITY           SKY/WX    TMP DP  RH WIND       PRES   REMARKS
PINE BLUFF     CLOUDY    76  74  93 S8        29.97R
MONTICELLO     CLOUDY    77  75  93 S8        29.98R

$$






USA.gov is the U.S. government's official web portal to all federal, state and local government web resources and services.